Weather in Makinsk

Kazakhstan     52°38′10″N   70°24′58″E
temp.,
°C
wind,
m/s
gust,
m/s
humid.,
%
clouds,
%
prec.,
mm/h
press.,
hPa
HPBL,
m
21 june, mon
mon2100:00+10nnw47635 1.4 1005103
03:00+8wnw6137385 0.0 1006459
06:00+6wnw91590100 0.5 10061282
09:00+7wnw71292100 0.8 10061334
12:00+8nw91384100 1.4 10081229
15:00+10n101787100 0.6 10091540
18:00+13nne8147296 1.3 10121463
21:00+11nnw5128220 0.6 1014528
22 june, tue
tue2200:00+8nw410905 0.6 1016187
03:00+8nnw499678 0.0 1016249
06:00+10nnw4990100 0.0 1017454
09:00+13nnw686154 0.1 10181377
12:00+15nnw67455 0.1 10181856
15:00+15nw664490 0.0 10181713
18:00+17nw4643100 0.0 10182039
21:00+12wnw2264100 0.0 101834
23 june, wed
wed2300:00+11w2370100 0.0 101647
03:00+10w1394100 2.3 1015139
06:00+10sse129593 5.4 1012171
09:00+12wnw4787100 0.1 1010525
12:00+9nne9138859 1.0 1012936
15:00+13nne8115991 0.2 10131621
18:00+13n6858100 0.3 10141465
21:00+11nnw477369 0.1 1015354
24 june, thu
thu2400:00+8nnw3787100 0.1 1015133
03:00+7nw489197 0.0 1015211
06:00+7nnw498821 0.1 1015372
09:00+11n686244 0.0 10161264
12:00+10nnw5871100 0.1 10161202
15:00+9nw3787100 1.5 1016424
18:00+10nnw357985 2.6 1015777
21:00+9nnw358351 0.3 1015277
25 june, fri
fri2500:00+5n23955 0.3 101637
03:00+5n1192100 0.0 101610
06:00+6n2290100 0.0 101627
09:00+11ne22706 0.0 1016704
12:00+15se1152100 0.1 10151516
15:00+17w234299 0.0 10141914
18:00+18w334198 0.0 10131903
21:00+15s335664 0.0 101330